Regional Weather Roundup
Issued by NWS

Home | Current Version | Previous Version | Graphics & Text | Print | Product List | Glossary On
Versions: 1 2 3 4 5 6 7 8 9 10 11 12 13 14 15 16 17 18 19 20 21 22 23 24 25 26 27 28 29 30 31 32 33 34 35 36 37 38 39 40 41 42 43 44 45 46 47 48 49 50
000
ASUS43 KDMX 260003
RWRIA

WEATHER ROUNDUP FOR IOWA
NATIONAL WEATHER SERVICE DES MOINES IA
700 PM CDT MON JUL 25 2016

NOTE: "FAIR" INDICATES FEW OR NO CLOUDS BELOW 12,000 FEET WITH NO
SIGNIFICANT WEATHER AND/OR OBSTRUCTIONS TO VISIBILITY.

* - THESE STATIONS ARE NOT NWS STATIONS...THUS NOT UNDER NWS
QUALITY CONTROL.  THEY ALSO DO NOT REPORT WEATHER SUCH
AS PRECIPITATION OR FOG.

IAZ001>003-012>014-020>022-031>034-043>046-260100-
   NORTHWEST IOWA

CITY           SKY/WX    TMP DP  RH WIND       PRES   REMARKS
CARROLL *      SUNNY     84  64  51 NE5       30.05S HX  86
CHEROKEE *     SUNNY     84  60  42 SE3       30.05F HX  84
DENISON *      SUNNY     82  66  57 E6        30.04S HX  85
LE MARS *      SUNNY     84  64  51 SE6       30.05F HX  86
SHELDON *      SUNNY     82  68  61 CALM      30.05S HX  85
SIOUX CITY     SUNNY     87  63  44 S6        30.04S HX  88
6HR MIN TEMP:  85; 6HR MAX TEMP:  89;

SPENCER        SUNNY     84  64  50 S3        30.06F HX  85
6HR MIN TEMP:  83; 6HR MAX TEMP:  86;

STORM LAKE *   SUNNY     82  64  54 CALM      30.07S HX  84
$$

IAZ055>058-069>071-079>083-090>094-260100-
   SOUTHWEST IOWA

CITY           SKY/WX    TMP DP  RH WIND       PRES   REMARKS
ATLANTIC *     SUNNY     82  68  61 NE7       30.04S HX  85
CLARINDA *       N/A     84  68  58 MISG      30.05S HX  87
COUNCIL BLFS * SUNNY     82  66  57 NE7       30.05S HX  85
CRESTON *      SUNNY     81  66  61 NE8       30.07R HX  83
HARLAN  *      SUNNY     82  68  61 NE5       30.08S HX  85
LAMONI         SUNNY     83  68  60 NE7       30.04R HX  86
6HR MIN TEMP:  80; 6HR MAX TEMP:  85;

RED OAK *      SUNNY     84  68  58 NE8       30.04S HX  87
SHENANDOAH *   SUNNY     82  70  65 NE7       30.04S HX  86
$$

IAZ047>049-059>061-072>074-084-260100-
   CENTRAL IOWA

CITY           SKY/WX    TMP DP  RH WIND       PRES   REMARKS
AMES           SUNNY     84  65  52 NE8       30.03F HX  86
6HR MIN TEMP:  84; 6HR MAX TEMP:  87;

ANKENY *         N/A    N/A N/A N/A MISG        N/A
BOONE *        SUNNY     82  66  57 NE6       30.04S HX  85
CHARITON *       N/A    N/A N/A N/A MISG        N/A
DES MOINES     MOSUNNY   86  60  41 NE15      30.03R HX  86
6HR MIN TEMP:  86; 6HR MAX TEMP:  89;

GRINNELL*      SUNNY     81  63  53 N5        30.04S HX  82
KNOXVILLE *    SUNNY     82  61  47 N10       30.02S HX  83
MARSHALLTOWN   SUNNY     82  66  58 N8        30.03S HX  84
6HR MIN TEMP:  82; 6HR MAX TEMP:  86;

NEWTON *       SUNNY     82  64  54 NE8       30.03S HX  84
PELLA *        SUNNY     83  63  50 N3        30.04R HX  83
PERRY *          N/A     83  66  55 NE5       30.04S HX  85
$$

IAZ004>006-015-016-023>025-035-036-260100-
   NORTH CENTRAL IOWA

CITY           SKY/WX    TMP DP  RH WIND       PRES   REMARKS
ALGONA *       SUNNY     84  66  54 CALM      30.06S HX  86
ESTHERVILLE    SUNNY     83  65  54 W3        30.06F HX  85
6HR MIN TEMP:  80; 6HR MAX TEMP:  85;

FORT DODGE *   SUNNY     82  64  54 N5        30.05F HX  84
MASON CITY     SUNNY     81  63  54 NW8       30.07S HX  82
6HR MIN TEMP:  81; 6HR MAX TEMP:  84;

FOREST CITY *    N/A     81  61  50 N7        30.06S HX  81
IOWA FALLS *     N/A     82  65  55 N7        30.06S HX  84
$$

IAZ007>011-017>019-026>030-037>042-050>054-066-260100-
   NORTHEAST IOWA

CITY           SKY/WX    TMP DP  RH WIND       PRES   REMARKS
CEDAR RAPIDS   MOSUNNY   82  66  58 NW7       30.02S HX  84
6HR MIN TEMP:  81; 6HR MAX TEMP:  85;

CHARLES CITY * SUNNY     81  64  57 N6G13     30.05S HX  82
CLINTON *      SUNNY     82  68  62 N5        30.02R HX  85
DECORAH *      SUNNY     79  63  57 N7        30.03R HX  80
DUBUQUE        MOSUNNY   80  65  59 NW5       30.04R HX  82
6HR MIN TEMP:  79; 6HR MAX TEMP:  83;

MONTICELLO *   SUNNY     81  64  57 N5        30.02S HX  82
OELWEIN *      SUNNY     81  66  61 N5        30.04S HX  83
WATERLOO       SUNNY     82  64  54 N8        30.02R HX  83
6HR MIN TEMP:  81; 6HR MAX TEMP:  84;

$$

IAZ064-065-067-068-078-260100-
   EAST CENTRAL IOWA

CITY           SKY/WX    TMP DP  RH WIND       PRES   REMARKS
DAVENPORT      MOSUNNY   82  66  58 N7        30.02R HX  84
6HR MIN TEMP:  81; 6HR MAX TEMP:  85;

IOWA CITY      SUNNY     82  63  52 N6        30.03R HX  83
6HR MIN TEMP:  80; 6HR MAX TEMP:  86;

MT. PLEASANT * CLOUDY    84  69  60 N6        30.02S HX  88
MUSCATINE *    CLOUDY    82  66  57 N6        30.01S HX  85
QUAD CITIES    SUNNY     84  63  49 N7        30.00S HX  85
6HR MIN TEMP:  83; 6HR MAX TEMP:  88;

$$

IAZ062-063-075>077-085>089-095>099-260100-
   SOUTHEAST IOWA

CITY           SKY/WX    TMP DP  RH WIND       PRES   REMARKS
BURLINGTON     SUNNY     80  68  66 N8        30.01S HX  83
6HR MIN TEMP:  80; 6HR MAX TEMP:  85;

FAIRFIELD *    CLOUDY    81  66  61 N7        30.03R HX  83
KEOKUK *       MOSUNNY   81  70  69 NE3       30.01R HX  84
OSKALOOSA *      N/A     80  68  65 N5        30.03S HX  83
CENTERVILLE *    N/A     81  64  57 NE7       30.05S HX  82
OTTUMWA        SUNNY     82  63  52 N8        30.01S HX  83
6HR MIN TEMP:  81; 6HR MAX TEMP:  85;

WASHINGTON *   CLOUDY    81  66  61 N8        30.03S HX  83
$$

ABBREVIATIONS USED IN REMARKS
   TC - TEMPERATURES IN CELSIUS
  WCI - WIND CHILL INDEX
   HX - HEAT INDEX
  VSB - VISIBILITY
$$




USA.gov is the U.S. government's official web portal to all federal, state and local government web resources and services.